sat.trackr.live / text

‹ back to catalog

STARLINK-34981

NORAD 65198 · 2025-176A

PAYLOAD ACTIVE UNKNOWN

§ Identity

Operator
Country
US
Launch date
2025-08-14
Launch site
AFETR
Launch vehicle
Mass (kg)
RCS (m²)

Purposes: comms

External: N2YO · Heavens-Above · Gunter

§ Orbital elements

Epoch: 2026-05-25T01:36:00.599040Z

Period
94.11 min
Inclination
53.1579°
Eccentricity
0.0001247
Mean motion
15.30205261 rev/d
Perigee alt
474.3 km
Apogee alt
476.1 km
Semi-major
6,853.3 km
B*
3.9768e-4
RAAN
160.8318°
Arg perigee
97.9321°
Mean anomaly
262.1822°
Rev number
4,477

§ Raw data

STARLINK-349811 65198U 25176A   26145.06667360  .00011439  00000+0  39768-3 0  99952 65198  53.1579 160.8318 0001247  97.9321 262.1822 15.30205261 44773

JSON: /api/v1/satellites/65198 · /tle

For live sub-satellite position, see the globe view (requires WebGL).

§ Visibility from observer

Set your observer location to see the next 7 days of passes ≥ 10°. The values pass through the URL so the page stays shareable.

No JS? Fill the form by hand. The geolocation button needs JavaScript.